Date,TemperatureHighF,TemperatureAvgF,TemperatureLowF,DewpointHighF,DewpointAvgF,DewpointLowF,HumidityHigh,HumidityAvg,HumidityLow,PressureMaxIn,PressureMinIn,WindSpeedMaxMPH,WindSpeedAvgMPH,GustSpeedMaxMPH,PrecipitationSumIn
2013-2-1,69.8,47.3,25.7,20.7,16.2,11.7,62,33,11,30.08,29.95,17,4,17,0.00
2013-2-2,74.7,51.2,28.6,23.7,13.6,4.3,54,26,10,30.16,30.03,24,5,24,0.00
2013-2-3,56.3,43.3,36.7,19.3,15.8,13.2,41,33,24,30.08,29.98,8,4,8,0.00
2013-2-4,68.4,55.6,43.0,36.5,32.6,28.8,57,42,30,29.90,29.80,18,7,18,0.00
2013-2-5,70.9,54.9,37.8,36.1,28.1,22.3,65,39,17,29.91,29.77,10,4,10,0.00
2013-2-6,68.4,56.6,34.7,33.6,28.6,17.5,69,37,16,29.83,29.72,26,8,26,0.00
2013-2-7,70.7,55.0,42.3,36.1,28.8,20.7,65,39,18,29.94,29.82,14,5,14,0.00
2013-2-8,71.1,55.3,40.8,31.1,25.1,9.0,55,34,10,29.94,29.68,26,8,26,0.00
2013-2-9,62.4,50.1,37.6,26.8,17.1,2.8,47,29,10,29.79,29.57,54,20,54,1.41
2013-2-10,55.6,42.9,32.5,21.4,14.1,3.1,58,34,13,29.84,29.73,34,13,34,0.00
2013-2-11,59.4,38.6,22.6,29.2,11.4,4.7,60,34,14,29.82,29.69,26,6,26,0.00
2013-2-12,41.9,36.8,32.7,33.5,30.3,26.9,82,77,61,29.85,29.78,29,18,29,0.00
2013-2-13,55.4,42.2,24.8,15.4,7.5,1.7,50,25,11,29.99,29.85,18,5,18,0.00
2013-2-14,65.5,45.3,24.8,16.1,11.2,5.2,45,27,11,29.95,29.82,24,5,24,0.00
2013-2-15,64.2,46.7,35.2,31.9,23.7,12.9,71,43,20,30.13,29.95,17,6,17,0.00
2013-2-16,66.4,46.4,27.7,25.1,14.8,5.1,69,34,10,30.20,29.95,11,3,11,0.00
2013-2-17,60.4,37.6,22.1,12.0,8.2,2.7,46,31,10,29.96,29.82,13,3,13,0.00
2013-2-18,64.6,53.1,46.2,10.9,1.4,-4.0,21,12,10,29.88,29.72,25,8,25,0.00
2013-2-19,60.3,49.6,35.4,47.7,22.2,-0.3,92,46,11,29.86,29.67,24,8,24,0.11
2013-2-20,61.3,48.4,36.1,44.6,32.6,17.0,93,62,19,29.67,29.42,62,19,62,3.32
2013-2-21,51.6,40.4,31.6,27.6,24.8,20.7,75,55,30,29.79,29.59,49,21,49,1.05
2013-2-22,55.9,44.2,28.9,29.7,23.1,18.8,83,46,24,29.87,29.74,36,12,36,0.00
2013-2-23,56.7,41.7,30.0,24.3,17.5,11.7,59,40,19,29.90,29.83,16,4,16,0.00
2013-2-24,61.0,55.4,45.3,23.2,18.2,11.4,38,24,15,29.62,29.46,41,18,41,0.15
2013-2-25,54.7,41.0,28.0,18.8,11.8,4.0,59,34,13,29.90,29.74,22,9,22,0.00
2013-2-26,65.1,50.6,33.1,14.9,2.0,-7.9,39,15,10,29.87,29.64,21,0,21,0.00
2013-2-27,42.3,39.0,36.1,-0.9,-4.0,-6.5,20,16,13,29.92,29.87,1,0,1,0.00
2013-2-28,60.8,45.1,25.5,17.1,8.3,-0.2,51,25,10,30.12,30.00,3,0,3,0.00